sat.trackr.live / text

‹ back to catalog

STARLINK-6292

NORAD 56775 · 2023-078J

PAYLOAD ACTIVE UNKNOWN

§ Identity

Operator
Country
US
Launch date
2023-05-31
Launch site
AFWTR
Launch vehicle
Mass (kg)
RCS (m²)

Purposes: comms

External: N2YO · Heavens-Above · Gunter

§ Orbital elements

Epoch: 2026-05-25T04:51:12.951072Z

Period
96.11 min
Inclination
69.9993°
Eccentricity
0.0003541
Mean motion
14.98330899 rev/d
Perigee alt
569.6 km
Apogee alt
574.5 km
Semi-major
6,950.2 km
B*
3.5347e-6
RAAN
111.6880°
Arg perigee
266.1170°
Mean anomaly
93.9584°
Rev number
16,512

§ Raw data

STARLINK-62921 56775U 23078J   26145.20223323 -.00000051  00000+0  35347-5 0  99982 56775  69.9993 111.6880 0003541 266.1170  93.9584 14.98330899165125

JSON: /api/v1/satellites/56775 · /tle

For live sub-satellite position, see the globe view (requires WebGL).

§ Visibility from observer

Set your observer location to see the next 7 days of passes ≥ 10°. The values pass through the URL so the page stays shareable.

No JS? Fill the form by hand. The geolocation button needs JavaScript.